Powrót do katalogu

CSG-1

AktywnyNaukaSSO
NORAD 44873·PAYLOAD·🇮🇹 Italy

Wystrzelony Dec 18, 2019 z Guiana Space Centre

Loading…

Następne Przeloty (najbliższe 24 godziny)

TLE

ŚwieżeSource: Space-Track

Epoka: Sep 14, 2026, 13:41 UTC

1 44873U 19092A   26257.57035954  .00000281  00000-0  41860-4 0  9991
2 44873  97.8917  79.9012 0001391  86.3584 273.7788 14.82157480364718

Śledź CSG-1 w czasie rzeczywistym z AllMySat

Download on the App Store